[[{"header":{"parameterUnit":"m.s-1","parameterCategory":1,"la1":30.2991,"la2":30.254,"lo1":-89.0895,"lo2":-89.0444,"dy":0.0017,"dx":0.0017,"nx":28,"ny":28,"refTime":"2024-04-25T03:00:00:Z","depth":0,"parameterNumber":2,"parameterNumberName":"U-component_of_WINDS"},"data":[0,0,0,0,0,0,0,0,0,0,0,0,0,0,0,0,0,0,0,0,0,0,0,0,0,0,0,0,0,0,0,0,0,0,0,0,0,0,0,0,0,0,0,0,0,0,0,0,0,0,0,0,0,0,0,0,0,0,-3.6415,-3.6416,0,-3.6459,-3.6459,-3.646,-3.6454,-3.6454,-3.6453,-3.6452,-3.6496,-3.6497,-3.6499,0,0,0,0,0,0,0,0,0,0,0,0,0,-3.6328,-3.633,-3.6415,-3.6416,-3.6416,-3.6459,-3.6459,-3.646,-3.6454,-3.6453,-3.6453,-3.6452,-3.6495,-3.6497,-3.6499,0,0,0,0,0,0,0,0,0,0,0,0,0,-3.6368,-3.633,-3.6415,-3.6419,-3.6419,-3.6458,-3.6459,-3.646,-3.6455,-3.6453,-3.6452,-3.6451,-3.6494,-3.6497,-3.65,-3.6537,0,0,-3.6508,-3.6509,0,0,0,0,0,0,0,0,-3.6366,-3.6371,-3.6418,-3.6419,-3.6419,-3.645,-3.6444,-3.6486,-3.6455,-3.6441,-3.6452,-3.6451,-3.6481,-3.6485,-3.6495,-3.6539,-3.6541,-3.6508,-3.651,-3.6511,-3.6512,0,0,0,0,0,0,0,-3.6363,-3.6369,-3.6432,-3.6418,-3.6419,-3.6418,-3.6423,-3.6452,-3.6466,-3.6442,-3.6442,-3.6447,-3.6481,-3.6493,-3.6496,-3.6542,-3.6508,-3.651,-3.6512,-3.6513,-3.6621,-3.6622,0,0,0,0,0,0,-3.6359,-3.6367,-3.6431,-3.6434,-3.639,-3.6421,-3.6426,-3.6441,-3.6466,-3.6469,-3.6448,-3.6447,-3.6489,-3.6493,-3.6498,-3.6544,-3.6511,-3.6513,-3.6515,-3.6619,-3.6621,-3.6622,0,0,0,0,0,0,-3.6358,-3.6365,-3.6429,-3.64,-3.6408,-3.6423,-3.6441,-3.6443,-3.6454,-3.6471,-3.6473,-3.6457,-3.6488,-3.6494,-3.6528,-3.6545,-3.6515,-3.6517,-3.6618,-3.662,-3.6622,-3.6636,0,0,0,0,0,0,-3.6355,-3.6365,-3.6379,-3.6401,-3.641,-3.6458,-3.6442,-3.6444,-3.6459,-3.6457,-3.648,-3.6482,-3.6488,-3.6524,-3.6531,-3.6548,-3.6519,-3.6616,-3.6619,-3.6621,-3.6634,-3.6638,-3.6642,0,0,0,0,0,-3.6352,-3.6381,-3.6379,-3.6387,-3.6428,-3.6459,-3.6465,-3.6471,-3.646,-3.6475,-3.6486,-3.6481,-3.6543,-3.6527,-3.6535,-3.6554,-3.6615,-3.6618,-3.6621,-3.6632,-3.6637,-3.6642,0,0,0,0,0,0,-3.6359,-3.6383,-3.6382,-3.6419,-3.6437,-3.6458,-3.6477,-3.6476,-3.6497,-3.6495,-3.6501,-3.6506,-3.654,-3.6551,-3.6533,-3.6593,-3.6578,-3.6582,-3.6584,-3.6589,-3.6593,-3.6588,-3.6521,0,0,0,0,0,-3.6365,-3.6389,-3.6409,-3.6439,-3.6449,-3.6461,-3.6475,-3.6478,-3.6497,-3.6505,-3.6518,-3.6537,-3.656,-3.6576,-3.6598,-3.6637,-3.6641,-3.6654,-3.6657,-3.666,-3.6663,-3.6685,-3.6691,-3.6631,-3.6631,-3.6631,0,0,-3.6378,-3.6394,-3.6408,-3.6441,-3.6456,-3.648,-3.6468,-3.6493,-3.6511,-3.6509,-3.6541,-3.6552,-3.6574,-3.661,-3.6627,-3.662,-3.6682,-3.6664,-3.6666,-3.6668,-3.6689,-3.6694,-3.6699,-3.6633,-3.6633,-3.6633,0,0,-3.6412,-3.6427,-3.6454,-3.6469,-3.6492,-3.6501,-3.6507,-3.6529,-3.6537,-3.657,-3.6569,-3.6591,-3.6631,-3.6646,-3.6659,-3.6703,-3.6699,-3.671,-3.6729,-3.675,-3.6755,-3.6759,-3.6774,-3.6779,-3.6714,-3.6714,-3.6714,0,-3.6424,-3.646,-3.6468,-3.6495,-3.6509,-3.651,-3.6537,-3.6552,-3.658,-3.6591,-3.6583,-3.6634,-3.6649,-3.6689,-3.67,-3.6711,-3.6718,-3.6706,-3.6754,-3.6758,-3.6762,-3.6776,-3.6782,-3.6715,-3.6715,-3.6714,-3.6714,0,-3.6474,-3.65,-3.6519,-3.6547,-3.6565,-3.6592,-3.6604,-3.6621,-3.6623,-3.6633,-3.6668,-3.6685,-3.6712,-3.6722,-3.6724,-3.6763,-3.6758,-3.6752,-3.6737,-3.6768,-3.6782,-3.6787,-3.6716,-3.6716,-3.6715,-3.6715,0,0,-3.6512,-3.6546,-3.6553,-3.6566,-3.6592,-3.6612,-3.664,-3.6666,-3.668,-3.6701,-3.6724,-3.676,-3.6755,-3.677,-3.6775,-3.6793,-3.6826,-3.6785,-3.6786,-3.6791,-3.687,-3.6873,-3.6879,-3.6825,-3.6827,-3.6827,-3.6868,0,-3.6548,-3.6596,-3.6605,-3.6648,-3.6672,-3.6673,-3.6698,-3.6717,-3.6727,-3.6749,-3.6761,-3.6786,-3.6778,-3.6787,-3.6806,-3.6818,-3.6842,-3.6816,-3.6846,-3.6847,-3.6839,-3.6886,-3.6889,-3.6926,-3.6873,-3.6874,-3.6875,0,-3.6596,-3.6618,-3.6663,-3.6688,-3.6698,-3.6719,-3.6745,-3.6766,-3.6788,-3.6795,-3.6813,-3.6816,-3.6845,-3.6831,-3.6871,-3.6853,-3.6867,-3.6876,-3.6877,-3.6879,-3.6861,-3.6888,-3.6938,-3.6943,-3.6883,-3.6882,-3.6882,0,-3.6618,-3.666,-3.6692,-3.6704,-3.6733,-3.6748,-3.6761,-3.6782,-3.6798,-3.6821,-3.6831,-3.6857,-3.6871,-3.6891,-3.6902,-3.689,-3.6942,-3.6928,-3.6947,-3.6947,-3.6956,-3.6955,-3.7008,-3.6968,-3.6968,-3.6967,-3.6967,0,-3.6656,-3.6683,-3.6702,-3.6722,-3.6753,-3.6764,-3.6794,-3.6807,-3.6826,-3.6849,-3.6853,-3.6874,-3.6887,-3.691,-3.6919,-3.6951,-3.6957,-3.6963,-3.6965,-3.6962,-3.6961,-3.6969,-3.6966,-3.6969,-3.6969,-3.6968,-3.6968,0,-3.6685,-3.6699,-3.6734,-3.676,-3.6767,-3.6788,-3.681,-3.683,-3.6842,-3.687,-3.6877,-3.6895,-3.6923,-3.6936,-3.697,-3.6976,-3.7013,-3.7013,-3.7005,-3.7005,-3.7023,-3.7021,-3.7082,-3.7091,-3.7046,-3.7047,-3.7047,0,-3.6708,-3.6729,-3.6757,-3.6772,-3.6786,-3.6811,-3.6828,-3.684,-3.6857,-3.6885,-3.6901,-3.6929,-3.6952,-3.6996,-3.7013,-3.7039,-3.704,-3.7059,-3.7043,-3.704,-3.7039,-3.7037,-3.7039,-3.7061,-3.7062,-3.7062,-3.7063,0,-3.6746,-3.6753,-3.6776,-3.6803,-3.6823,-3.6845,-3.6866,-3.6878,-3.6894,-3.6913,-3.6942,-3.696,-3.6996,-3.7023,-3.7052,-3.7065,-3.7066,-3.7068,-3.7074,-3.707,-3.7064,-3.7066,-3.7011,-3.7066,-3.7065,-3.7065,-3.7065,-3.7065,-3.6772,-3.6791,-3.6814,-3.6841,-3.6859,-3.6879,-3.6898,-3.6913,-3.6937,-3.6967,-3.6974,-3.7004,-3.7027,-3.7065,-3.708,-3.7104,-3.7099,-3.7108,-3.711,-3.7111,-3.7112,-3.7062,-3.7109,-3.7109,-3.7109,-3.7109,-3.7109,0,-3.681,-3.6826,-3.685,-3.688,-3.6902,-3.6903,-3.6927,-3.6944,-3.6971,-3.6993,-3.7015,-3.7049,-3.7077,-3.7096,-3.7124,-3.714,-3.7141,-3.7147,-3.7145,-3.7148,-3.7115,-3.7106,-3.7145,-3.7145,-3.7145,-3.7145,-3.7145,-3.7145,-3.6833,-3.6865,-3.6874,-3.6916,-3.6931,-3.6961,-3.6975,-3.6994,-3.7011,-3.7048,-3.7071,-3.7084,-3.7105,-3.7135,-3.7161,-3.7166,-3.7175,-3.7181,-3.7185,-3.7154,-3.715,-3.7146,-3.7138,-3.7183,-3.7183,-3.7216,-3.7217,-3.7217]},{"header":{"parameterUnit":"m.s-1","parameterCategory":1,"la1":30.2991,"la2":30.254,"lo1":-89.0895,"lo2":-89.0444,"dy":0.0017,"dx":0.0017,"nx":28,"ny":28,"refTime":"2024-04-25T03:00:00:Z","depth":0,"parameterNumber":3,"parameterNumberName":"V-component_of_WINDS"},"data":[0,0,0,0,0,0,0,0,0,0,0,0,0,0,0,0,0,0,0,0,0,0,0,0,0,0,0,0,0,0,0,0,0,0,0,0,0,0,0,0,0,0,0,0,0,0,0,0,0,0,0,0,0,0,0,0,0,0,4.8754,4.8754,0,4.8776,4.8776,4.8776,4.8771,4.8771,4.877,4.877,4.879,4.8791,4.8792,0,0,0,0,0,0,0,0,0,0,0,0,0,4.8708,4.8709,4.8754,4.8754,4.8754,4.8776,4.8776,4.8776,4.8771,4.8771,4.877,4.877,4.879,4.8791,4.8792,0,0,0,0,0,0,0,0,0,0,0,0,0,4.8728,4.8709,4.8754,4.8754,4.8755,4.8775,4.8776,4.8776,4.8771,4.8771,4.877,4.8769,4.879,4.8791,4.8793,4.8814,0,0,4.8797,4.8797,0,0,0,0,0,0,0,0,4.8727,4.873,4.8754,4.8754,4.8755,4.877,4.8767,4.8789,4.8771,4.8765,4.877,4.8769,4.8784,4.8786,4.8791,4.8814,4.8815,4.8797,4.8798,4.8798,4.8799,0,0,0,0,0,0,0,4.8726,4.8729,4.8762,4.8754,4.8755,4.8754,4.8756,4.8771,4.8778,4.8765,4.8765,4.8768,4.8784,4.879,4.8792,4.8816,4.8797,4.8798,4.8799,4.88,4.8859,4.886,0,0,0,0,0,0,4.8724,4.8728,4.8762,4.8763,4.8739,4.8755,4.8757,4.8766,4.8777,4.8779,4.8768,4.8767,4.8788,4.879,4.8792,4.8819,4.8798,4.88,4.8801,4.8858,4.8859,4.886,0,0,0,0,0,0,4.8723,4.8727,4.8761,4.8746,4.875,4.8756,4.8766,4.8766,4.8772,4.878,4.8781,4.8773,4.8787,4.879,4.8809,4.882,4.88,4.8802,4.8858,4.8859,4.886,4.8871,0,0,0,0,0,0,4.8722,4.8727,4.8735,4.8746,4.8751,4.8777,4.8766,4.8767,4.8775,4.8774,4.8784,4.8786,4.8787,4.8807,4.881,4.8821,4.8803,4.8857,4.8858,4.8859,4.887,4.8873,4.8875,0,0,0,0,0,4.872,4.8736,4.8735,4.8739,4.8761,4.8777,4.878,4.8782,4.8776,4.8784,4.8789,4.8785,4.8818,4.8809,4.8813,4.8824,4.8856,4.8858,4.8859,4.8869,4.8872,4.8875,0,0,0,0,0,0,4.8725,4.8738,4.8737,4.8757,4.8766,4.8777,4.8787,4.8785,4.8796,4.8795,4.8797,4.8799,4.8818,4.8823,4.8812,4.8846,4.8836,4.8839,4.8842,4.8845,4.8848,4.8846,4.8804,0,0,0,0,0,4.8729,4.8742,4.8752,4.8769,4.8774,4.878,4.8787,4.8788,4.8798,4.8802,4.8808,4.8817,4.883,4.8838,4.8849,4.8871,4.8874,4.8881,4.8883,4.8885,4.8888,4.8901,4.8904,4.8866,4.8866,4.8866,0,0,4.8736,4.8745,4.8753,4.877,4.8778,4.8792,4.8783,4.8797,4.8808,4.8803,4.8822,4.8827,4.8837,4.8858,4.8867,4.8862,4.8899,4.8888,4.8889,4.889,4.8903,4.8907,4.891,4.8867,4.8867,4.8866,0,0,4.8757,4.8764,4.878,4.8788,4.88,4.8804,4.8808,4.8819,4.8823,4.8842,4.8839,4.8851,4.8873,4.8881,4.8887,4.8914,4.8911,4.8917,4.893,4.8943,4.8946,4.8949,4.8959,4.8963,4.892,4.892,4.892,0,4.8764,4.8785,4.8788,4.8803,4.8812,4.881,4.8826,4.8834,4.8849,4.8855,4.8849,4.8877,4.8884,4.8907,4.8914,4.8919,4.8924,4.8916,4.8946,4.8949,4.8951,4.8961,4.8965,4.892,4.892,4.892,4.892,0,4.8794,4.8809,4.882,4.8836,4.8846,4.8861,4.8867,4.8876,4.8877,4.8882,4.8901,4.891,4.8924,4.893,4.893,4.8953,4.895,4.8945,4.8935,4.8956,4.8965,4.8969,4.8921,4.8921,4.8921,4.8921,0,0,4.8817,4.8836,4.8841,4.8849,4.8863,4.8874,4.889,4.8905,4.8913,4.8924,4.8938,4.8957,4.8953,4.8961,4.8962,4.8974,4.8995,4.8968,4.8968,4.8973,4.9023,4.9027,4.9032,4.8994,4.8995,4.8995,4.9023,0,4.884,4.8869,4.8873,4.8899,4.8913,4.8912,4.8927,4.8937,4.8942,4.8955,4.8961,4.8975,4.8968,4.8973,4.8984,4.899,4.9006,4.8988,4.9007,4.9008,4.9005,4.9036,4.904,4.9066,4.9026,4.9027,4.9027,0,4.8869,4.8883,4.891,4.8924,4.893,4.8943,4.8958,4.897,4.8982,4.8986,4.8996,4.8996,4.9013,4.9003,4.9027,4.9015,4.9023,4.9028,4.9029,4.9031,4.9019,4.904,4.9074,4.9078,4.9033,4.9032,4.9032,0,4.8885,4.8909,4.893,4.8936,4.8953,4.8962,4.8969,4.8981,4.899,4.9003,4.901,4.9024,4.9032,4.9043,4.9048,4.904,4.9072,4.9062,4.9076,4.9076,4.9082,4.9082,4.9119,4.9087,4.9087,4.9087,4.9087,0,4.891,4.8927,4.8937,4.8949,4.8969,4.8974,4.8993,4.9,4.9011,4.9024,4.9025,4.9038,4.9043,4.9057,4.906,4.908,4.9084,4.9087,4.9088,4.9087,4.9087,4.9093,4.9091,4.9088,4.9088,4.9087,4.9087,0,4.893,4.8938,4.896,4.8974,4.8978,4.8992,4.9005,4.9017,4.9023,4.9041,4.9045,4.9054,4.9071,4.9077,4.9096,4.9099,4.9122,4.9121,4.9119,4.9119,4.9133,4.9132,4.9175,4.9181,4.9144,4.9145,4.9145,0,4.8946,4.8959,4.8976,4.8986,4.8994,4.9009,4.9019,4.9025,4.9036,4.9052,4.9062,4.9079,4.9093,4.9119,4.9128,4.9143,4.9143,4.9157,4.9145,4.9145,4.9144,4.9144,4.9146,4.9159,4.916,4.916,4.916,0,4.8973,4.8977,4.8991,4.9008,4.9021,4.9034,4.9047,4.9055,4.9063,4.9074,4.9092,4.9103,4.9124,4.9141,4.9158,4.9165,4.9164,4.9164,4.9168,4.9168,4.9166,4.9169,4.9125,4.9163,4.9163,4.9162,4.9162,4.9162,4.8992,4.9005,4.9019,4.9036,4.9047,4.9059,4.9072,4.908,4.9096,4.9114,4.9116,4.9136,4.9149,4.9171,4.9179,4.9194,4.919,4.9196,4.9198,4.9199,4.9201,4.9164,4.9197,4.9197,4.9197,4.9197,4.9197,0,4.902,4.903,4.9046,4.9065,4.9079,4.9078,4.9092,4.9104,4.9121,4.9134,4.9148,4.9169,4.9186,4.9196,4.9213,4.9224,4.9224,4.9228,4.9228,4.923,4.9203,4.9198,4.9228,4.9228,4.9228,4.9228,4.9228,4.9228,4.9037,4.9059,4.9064,4.9092,4.9101,4.9121,4.913,4.9141,4.9152,4.9176,4.919,4.9197,4.9209,4.9228,4.9243,4.9246,4.9253,4.9257,4.926,4.9234,4.9231,4.9228,4.9224,4.9259,4.9259,4.9285,4.9286,4.9286]}]]